This demonstration page uses our WeatherBlox Daily Observations layout. Learn more.

Left ArrowRight Arrow

Hourly Observations for December 9, 2020

Temp ( °F °C ) Dew Point ( °F °C ) Humidity (%) Winds ( mph kmh ) Pressure ( in mb ) Visibility ( mi km ) Precip ( " mm )
12:51 am 00:51 Clear 50 10 12 -11.1 22 22 ESE 12 19 30.19 1022 10 16.0934 0 0
1:51 am 01:51 Clear 48 8.9 12 -11.1 23 23 ESE 10 17 30.19 1022 10 16.0934 0 0
2:51 am 02:51 Clear 48 8.9 11 -11.7 22 22 ESE 12 19 30.18 1022 10 16.0934 0 0
3:51 am 03:51 Clear 49 9.4 11 -11.7 21 21 ESE 16 26 30.17 1022 10 16.0934 0 0
4:51 am 04:51 Clear 50 10 10 -12.2 20 20 ESE 15 24 30.18 1022 10 16.0934 0 0
5:51 am 05:51 Clear 47 8.3 10 -12.2 22 22 ESE 13 20 30.2 1023 10 16.0934 0 0
6:51 am 06:51 Clear 46 7.8 10 -12.2 23 23 ESE 15 24 30.22 1024 10 16.0934 0 0
7:51 am 07:51 Sunny 48 8.9 10 -12.2 21 21 ESE 17 28 30.23 1024 10 16.0934 0 0
8:51 am 08:51 Sunny 51 10.6 10 -12.2 19 19 SE 15 24 30.24 1024 10 16.0934 0 0
9:51 am 09:51 Sunny 55 12.8 13 -10.6 19 19 SSE 13 20 30.24 1024 10 16.0934 0 0
10:51 am 10:51 Sunny 60 15.6 13 -10.6 16 16 SE 10 17 30.19 1022 10 16.0934 0 0
11:51 am 11:51 Sunny 63 17.2 13 -10.6 14 14 SE 7 11 30.13 1020 10 16.0934 0 0
12:51 pm 12:51 Sunny 65 18.3 14 -10 14 14 ESE 7 11 30.08 1019 10 16.0934 0 0
1:51 pm 13:51 Sunny 68 20 16 -8.9 13 13 S 6 9 30.04 1017 10 16.0934 0 0
2:51 pm 14:51 Sunny 69 20.6 16 -8.9 13 13 S 5 7 30 1016 10 16.0934 0 0
3:51 pm 15:51 Sunny 69 20.6 16 -8.9 13 13 SW 5 7 29.98 1015 10 16.0934 0 0
4:51 pm 16:51 Sunny 67 19.4 16 -8.9 14 14 Calm 29.95 1014 10 16.0934 0 0
5:51 pm 17:51 Partly Cloudy 60 15.6 15 -9.4 17 17 Calm 29.98 1015 10 16.0934 0 0
6:51 pm 18:51 Mostly Cloudy 60 15.6 15 -9.4 17 17 ENE 8 13 29.97 1015 10 16.0934 0 0
7:51 pm 19:51 Mostly Cloudy 58 14.4 15 -9.4 18 18 ENE 5 7 29.98 1015 10 16.0934 0 0
8:51 pm 20:51 Cloudy 59 15 15 -9.4 18 18 E 7 11 29.96 1015 10 16.0934 0 0
9:51 pm 21:51 Cloudy 61 16.1 18 -7.8 19 19 E 9 15 29.94 1014 10 16.0934 0 0
10:51 pm 22:51 Partly Cloudy 57 13.9 20 -6.7 24 24 SSE 5 7 29.94 1014 10 16.0934 0 0
11:51 pm 23:51 Mostly Cloudy 60 15.6 21 -6.1 22 22 E 9 15 29.9 1013 10 16.0934 0 0

Powered by AerisWeather